Regional Weather Roundup
Issued by NWS Raleigh/Durham, NC

Home | Current Version | Previous Version | Text Only | Print | Product List | Glossary On
Versions: 1 2 3 4 5 6 7 8 9 10 11 12 13 14 15 16 17 18 19 20 21 22 23 24 25 26 27 28 29 30 31 32 33 34 35 36 37 38 39 40 41 42 43 44 45 46 47 48 49 50
000
ASUS42 KRAH 182110
RWRRAH
NORTH CAROLINA WEATHER ROUNDUP
NATIONAL WEATHER SERVICE RALEIGH NC
500 PM EDT THU SEP 18 2014

NOTE: "FAIR" INDICATES FEW OR NO CLOUDS BELOW 12,000 FEET WITH NO
SIGNIFICANT WEATHER AND/OR OBSTRUCTIONS TO VISIBILITY.

NCZ001-053-055-056-065-067-182200-
WESTERN NORTH CAROLINA

CITY           SKY/WX    TMP DP  RH WIND       PRES   REMARKS
ASHEVILLE      NOT AVBL
JEFFERSON      NOT AVBL
HICKORY        NOT AVBL
RUTHERFORDTON  NOT AVBL
MOUNT AIRY     PTSUNNY   75  61  61 CALM      30.02S
BOONE          CLOUDY    66  56  70 CALM      30.08S
$$

NCZ021-022-025-041-071-084-088-182200-
CENTRAL NORTH CAROLINA

CITY           SKY/WX    TMP DP  RH WIND       PRES   REMARKS
CHARLOTTE      PTSUNNY   79  62  56 VRB5      29.98
GREENSBORO     PTSUNNY   75  62  64 E6        29.99S
WINSTON-SALEM  LGT RAIN  73  62  68 E5        30.00S
RALEIGH-DURHAM PTSUNNY   78  59  51 E7        29.98S
FORT BRAGG     MOSUNNY   81  60  49 E6        29.96S
FAYETTEVILLE   SUNNY     82  62  50 NE9       29.96S
BURLINGTON     CLOUDY    76  60  57 NE5       29.98S
LAURINBURG     CLOUDY    80  62  54 NE7       29.96S
$$

NCZ011-015-027-028-043-044-047-080-103-182200-
NORTHEASTERN NORTH CAROLINA

CITY           SKY/WX    TMP DP  RH WIND       PRES   REMARKS
ROCKY MT-WILSO MOSUNNY   78  60  53 E3        29.99R
GREENVILLE     MOSUNNY   79  61  53 NE7       30.00S
WASHINGTON     SUNNY     76  59  56 NE6       29.99S
ELIZABETH CITY NOT AVBL
MANTEO         SUNNY     73  56  55 NE10      30.02R
CAPE HATTERAS  SUNNY     73  57  57 NE8       29.99S
$$

NCZ078-087-090-091-093-098-101-182200-
SOUTHEASTERN NORTH CAROLINA

CITY           SKY/WX    TMP DP  RH WIND       PRES   REMARKS
LUMBERTON      CLOUDY    82  65  56 NE9       29.95R
GOLDSBORO      PTSUNNY   78  63  60 NE7       29.96R
KINSTON        MOSUNNY   81  59  47 NE6       29.99R
KENANSVILLE    MOSUNNY   79  60  52 CALM      29.98S
NEW BERN       SUNNY     79  61  53 E8        29.99S
CHERRY POINT   MOSUNNY   78  58  49 E12       29.99S
BEAUFORT       SUNNY     78  58  49 NE10      29.98S
JACKSONVILLE   SUNNY     80  61  52 E9        29.96S
WILMINGTON     MOSUNNY   79  64  60 E12       29.97R
$$



USA.gov is the U.S. government's official web portal to all federal, state and local government web resources and services.